Wind_Speed
5 5 5 7 7 8 9 9 9 9 9 9 9 10 10 10 10 10 9 9 9 8 7 6 6 6 6 6 6 5 5 4 5 4 4 3 4 4 5 5 6 6 5 5 4 4 3 4 4 4 5 6 6 6 6 4 3 3 4 5 5 6 7 6 6 6 6 7 7 6 4 3 2 1 1 2 3 2 2 1 1 4 8 8 6
5 6 6 7 7 8 9 8 8 8 8 8 8 9 10 11 11 11 10 9 9 8 7 7 7 6 6 6 6 5 5 5 5 4 5 5 5 6 6 5 6 6 5 5 5 5 6 6 6 6 7 7 7 6 5 5 4 5 4 4 4 3 4 5 5 5 6 6 6 4 3 2 1 1 2 3 4 4 3 2 1 5 9 7 6
6 7 7 8 7 8 9 8 8 8 8 7 7 8 9 10 10 10 10 9 9 9 8 8 7 7 7 6 6 6 5 4 4 4 4 4 5 5 5 5 5 5 5 6 6 7 7 7 7 7 8 8 8 7 7 7 7 8 7 6 5 4 4 4 4 4 4 4 4 3 2 1 2 1 1 2 5 6 5 3 1 5 8 6 7
7 8 7 8 7 7 8 8 8 8 7 7 7 8 9 9 9 9 9 9 9 9 9 8 8 8 8 7 7 6 6 5 5 4 4 3 4 4 4 4 4 5 5 6 7 7 7 7 6 7 8 8 8 8 8 9 9 9 9 8 7 7 5 4 4 3 2 2 1 2 1 2 1 3 3 3 6 6 5 4 2 6 7 6 6
8 9 8 8 8 7 7 8 7 7 7 7 7 8 8 9 9 9 8 8 8 8 8 8 8 8 7 7 7 6 6 5 5 4 4 3 3 3 3 3 3 4 4 5 6 6 6 6 6 6 6 7 7 7 7 8 8 8 8 8 7 7 6 5 4 2 2 1 2 2 2 4 1 6 4 3 5 5 5 4 4 6 6 4 5
9 9 8 7 8 7 7 7 6 6 7 7 7 7 8 8 8 8 8 7 7 7 7 7 7 7 6 6 5 5 5 4 4 4 4 3 3 3 3 2 2 3 3 4 5 5 5 5 5 5 5 6 5 6 6 6 7 7 6 6 5 5 5 4 3 3 2 1 2 3 3 3 2 6 4 3 3 4 5 5 5 6 5 4 4
9 9 7 7 7 7 7 6 6 6 7 6 7 7 8 8 8 8 8 7 7 7 7 6 6 6 6 6 5 5 4 4 4 4 4 3 3 3 3 3 2 3 3 3 3 4 3 3 3 4 4 4 4 4 5 5 5 5 4 4 4 4 4 4 3 3 2 2 3 4 4 1 1 4 4 4 3 4 5 5 6 6 5 4 4
8 7 7 7 7 6 6 6 6 7 7 7 7 8 8 8 8 8 8 8 8 7 7 7 6 6 7 7 7 6 5 5 5 4 4 4 4 3 4 4 3 3 3 3 3 3 3 3 3 3 3 3 3 2 3 3 3 3 3 4 4 4 4 4 3 3 3 4 5 6 5 2 1 3 4 4 4 4 4 4 5 5 5 5 5
7 6 5 6 6 5 5 6 6 7 8 8 8 8 8 9 8 8 8 8 8 9 8 8 8 7 8 7 7 7 6 6 5 5 5 4 4 3 3 3 3 2 3 3 3 4 4 4 4 4 4 3 2 1 2 2 2 2 3 4 5 5 4 2 2 3 4 5 6 7 6 3 2 4 5 5 5 5 5 5 5 6 5 5 6
7 6 5 5 5 5 5 6 7 8 8 8 8 8 8 8 8 8 8 8 8 8 8 8 8 8 8 8 7 7 7 7 6 6 5 5 5 4 3 2 2 2 3 4 4 4 4 5 4 5 5 4 3 1 2 2 2 3 3 4 5 5 4 1 1 3 4 3 5 7 6 4 3 4 5 6 6 6 6 6 6 6 5 5 6
7 6 6 5 5 5 7 7 7 8 7 7 7 8 8 8 9 9 8 8 8 8 8 8 8 8 8 8 8 8 8 7 7 7 6 6 6 6 5 4 3 3 4 5 5 5 5 5 5 5 4 3 3 2 2 2 1 2 3 5 5 5 4 1 0 2 3 2 2 5 7 5 4 5 6 7 7 7 7 7 7 6 6 6 6
8 7 7 6 6 6 7 7 7 7 7 7 7 8 8 9 9 9 9 8 9 9 8 8 8 8 8 8 8 8 8 8 8 7 7 6 7 6 6 5 5 4 5 5 5 5 5 5 5 6 5 2 2 3 2 2 2 3 4 5 5 5 4 2 1 2 3 3 2 3 5 4 4 5 6 7 7 8 7 7 7 7 7 6 6
9 7 8 8 8 7 7 7 6 7 6 7 7 8 9 9 9 9 9 9 9 8 8 8 8 8 8 9 8 8 8 8 8 8 8 8 8 7 6 6 5 5 6 6 6 5 5 5 6 7 6 2 1 2 3 3 3 4 4 5 5 4 4 4 2 3 3 3 2 2 3 3 4 5 6 8 8 8 7 7 7 8 7 7 7
9 8 8 8 8 8 7 7 7 7 7 7 8 9 9 10 10 10 9 9 8 7 7 7 7 8 8 9 9 9 9 8 8 8 9 9 9 8 7 6 6 6 7 7 6 6 6 6 6 6 6 3 1 2 3 3 4 4 5 5 5 4 3 4 3 2 3 3 2 0 2 3 4 5 6 8 8 8 8 8 8 8 8 7 7
9 8 7 7 8 8 7 8 8 8 8 9 9 10 10 10 10 10 9 8 7 7 7 6 7 8 8 8 8 8 8 8 9 9 9 9 8 8 7 7 7 7 7 7 7 7 6 6 5 4 4 3 2 3 3 4 4 4 5 5 4 4 3 4 4 3 2 1 1 1 2 4 5 6 7 8 8 8 8 8 8 8 8 8 7
7 7 6 7 7 6 7 7 7 8 8 9 10 10 10 10 10 9 9 8 9 8 7 6 7 9 9 9 8 8 8 8 8 9 9 10 9 8 8 7 7 7 7 8 8 8 8 7 5 4 2 2 2 2 3 3 4 4 4 5 4 4 4 5 5 4 3 2 2 2 2 3 5 8 9 9 8 8 9 9 8 8 8 8 8
7 6 6 6 5 5 6 6 7 8 9 9 10 10 10 10 9 8 8 9 10 10 8 6 7 9 10 9 8 7 7 8 8 8 9 10 10 10 9 9 8 8 8 8 8 8 8 8 7 5 2 1 1 1 1 2 3 4 5 5 5 4 4 5 6 5 4 4 4 4 4 4 5 8 10 10 9 9 9 9 9 8 8 8 9
7 7 7 6 6 6 6 6 7 8 9 10 9 10 10 9 9 9 10 11 11 12 9 7 8 10 10 9 8 8 8 7 8 9 9 10 10 10 10 9 9 8 8 8 8 8 8 7 7 6 4 2 2 2 2 1 2 4 5 5 5 5 5 6 6 6 4 5 5 6 6 5 6 8 10 11 10 10 10 10 9 9 9 9 9
7 7 7 7 7 8 7 7 8 8 9 10 9 9 9 9 10 11 12 13 13 12 10 9 9 10 9 9 8 8 9 8 8 9 9 9 9 10 10 10 9 9 8 8 8 8 8 7 7 6 6 5 4 3 3 2 2 3 4 5 5 5 5 6 6 5 5 6 6 7 7 7 7 8 10 11 11 11 11 11 10 9 8 9 9
6 6 6 7 7 7 7 7 7 8 8 9 9 9 9 9 10 11 12 13 12 10 10 9 9 9 9 8 8 8 9 9 9 10 10 10 10 10 10 10 9 9 8 8 8 8 7 7 7 6 6 5 4 4 3 3 3 3 4 5 5 5 6 5 5 6 6 7 7 7 8 8 8 9 10 12 12 12 12 11 10 9 9 9 9
7 6 6 6 6 6 6 7 7 8 8 8 9 10 11 11 11 11 11 11 10 9 9 9 9 9 8 8 8 9 10 10 11 11 11 10 10 10 9 9 9 8 8 7 7 7 7 7 7 7 6 6 5 4 3 3 3 4 4 5 5 6 6 5 5 6 7 7 8 8 8 9 10 10 11 13 13 13 12 12 11 10 10 11 10
9 8 7 7 7 7 7 7 7 8 9 9 10 12 12 12 12 11 11 10 9 8 8 9 9 9 8 8 9 9 10 10 11 11 10 9 10 9 9 9 9 9 9 8 8 8 8 8 7 7 6 5 4 4 3 3 4 4 5 5 5 6 6 5 5 6 7 7 8 8 8 9 10 11 11 13 13 13 12 12 12 11 10 9 9
11 10 9 9 9 8 7 7 8 10 11 12 12 12 12 12 12 11 10 10 9 8 9 9 9 9 9 9 9 9 9 9 9 9 9 9 9 9 9 9 9 10 10 9 9 8 8 8 7 7 6 5 4 4 4 4 4 5 5 5 6 6 6 6 6 6 7 8 8 8 8 8 9 9 10 12 13 13 13 13 13 11 9 8 10
11 11 10 11 10 8 7 8 10 11 11 12 13 13 13 12 12 11 11 10 10 9 9 9 9 9 9 9 9 9 9 10 9 8 8 9 8 8 8 8 8 8 8 8 7 7 7 7 7 7 6 5 4 5 5 5 5 5 5 6 6 6 6 7 7 7 7 8 8 8 9 8 9 9 9 10 11 13 14 15 13 10 8 9 12
10 11 11 11 10 8 8 9 9 11 12 12 14 14 13 13 13 13 12 11 11 10 10 9 9 9 9 9 10 10 10 9 9 8 8 8 7 7 7 6 6 6 7 6 6 6 5 6 6 7 7 6 5 5 5 6 6 6 6 6 6 7 7 7 7 7 8 8 8 9 9 9 9 9 9 9 10 12 14 15 12 9 10 11 12
10 11 11 12 11 10 9 10 11 12 13 13 15 16 15 15 15 14 13 13 12 12 11 10 10 10 10 9 9 9 9 8 8 8 8 7 7 7 7 6 6 6 6 6 6 6 6 6 6 6 6 6 5 5 6 7 7 7 7 7 7 7 7 7 7 7 8 8 8 8 8 9 9 9 9 9 10 12 13 13 10 10 12 13 12
11 11 11 12 11 11 9 9 12 13 12 13 15 17 16 16 16 15 15 15 14 13 13 11 11 10 10 9 8 9 8 8 8 8 8 8 8 8 8 8 8 8 8 7 6 6 6 6 6 5 5 5 5 5 6 6 7 7 7 8 8 8 8 8 8 8 8 8 8 8 8 9 10 10 10 10 11 12 13 11 10 10 12 12 13
12 11 11 11 11 11 11 10 12 14 15 16 17 17 17 17 16 16 16 16 15 15 14 12 11 11 11 10 9 10 10 10 10 10 10 9 10 10 9 9 10 11 10 9 8 8 8 7 6 5 5 5 5 5 5 6 7 8 8 9 9 8 8 8 8 8 8 9 9 8 8 9 9 10 11 12 12 12 13 9 8 10 10 11 14
14 12 11 11 10 11 12 12 13 16 17 17 18 18 18 18 17 17 17 16 16 16 14 13 12 11 12 12 11 11 12 12 12 12 10 10 11 10 10 11 11 11 11 10 11 10 9 9 8 7 6 6 6 6 6 7 8 9 10 10 10 9 8 8 8 8 8 9 10 9 9 9 9 10 9 10 11 12 13 9 8 9 8 10 13
15 14 13 11 11 11 12 12 13 15 16 18 18 18 18 18 18 17 16 15 15 15 14 14 14 13 14 13 13 13 13 13 13 12 11 11 11 10 11 11 11 12 12 12 12 11 10 9 9 9 8 7 7 7 8 8 9 10 11 11 10 10 8 7 7 7 8 10 11 10 10 10 10 10 9 9 10 10 11 9 7 9 9 10 12
13 14 14 13 12 12 11 12 12 14 16 17 18 18 18 18 17 16 14 14 14 13 14 15 15 14 14 14 14 14 13 12 12 11 11 11 11 11 12 12 12 12 12 12 12 11 11 11 10 10 10 9 9 9 9 10 10 12 13 12 11 10 9 8 7 7 8 8 8 8 8 9 10 11 10 10 10 10 9 7 6 8 10 10 11
13 13 13 12 12 11 11 11 12 12 14 16 16 17 17 16 15 14 14 13 13 13 14 14 15 14 14 13 14 13 13 12 12 12 11 11 11 12 12 12 13 12 12 12 12 11 10 10 10 10 10 9 9 8 10 11 11 13 13 11 10 9 9 9 9 9 8 8 8 8 7 7 8 9 9 9 9 10 9 6 4 7 8 7 9
12 11 12 12 12 11 10 11 12 12 14 15 16 16 15 14 14 13 13 13 12 13 13 14 14 14 13 13 13 12 12 12 12 11 11 11 11 11 12 12 12 12 12 12 12 12 11 10 11 11 10 10 10 10 10 11 11 12 11 10 10 11 11 12 12 13 13 13 13 12 11 10 10 10 10 10 10 10 10 8 5 6 7 7 7
11 10 11 11 11 11 11 11 13 14 16 17 16 16 15 14 14 14 14 13 13 13 13 13 13 13 13 13 13 12 12 11 11 10 10 10 10 11 12 12 12 12 12 13 13 14 13 13 13 13 13 12 12 12 12 11 11 10 9 9 11 13 14 15 16 17 18 18 17 16 15 14 15 15 15 14 13 13 12 10 7 4 6 7 7
11 10 10 10 10 10 11 12 14 16 17 17 16 16 15 15 15 15 14 14 14 13 13 12 12 12 12 13 13 12 11 11 10 9 9 9 10 11 12 11 11 11 12 13 14 15 15 15 15 15 15 14 13 12 12 10 10 7 7 10 12 14 15 16 17 18 19 20 20 19 18 18 18 18 18 18 17 17 16 13 9 5 3 5 6
11 11 11 10 11 11 13 15 17 18 18 17 16 16 16 16 16 16 15 14 14 13 12 12 12 12 12 12 12 11 10 10 9 9 9 9 9 11 11 10 10 11 12 13 14 15 16 16 17 17 16 16 14 12 11 10 8 4 6 11 14 14 15 17 17 18 19 20 21 21 20 19 19 20 20 20 19 19 19 16 12 6 2 4 6
12 12 11 11 12 13 15 17 18 18 17 16 16 15 15 15 15 15 15 15 14 13 12 12 12 12 12 11 11 10 9 9 10 9 9 10 10 11 11 10 10 11 12 12 15 16 16 16 17 17 17 17 17 15 13 9 6 3 8 13 16 16 17 18 17 18 18 20 22 22 22 20 19 19 19 20 20 18 18 17 14 9 3 3 6
11 10 11 11 12 13 14 16 16 16 15 15 14 14 14 14 14 14 14 14 14 14 13 13 13 12 12 11 11 10 10 9 10 10 10 10 10 11 11 11 10 11 12 13 14 14 14 14 15 16 17 18 19 19 16 10 6 5 8 10 13 15 17 19 20 18 19 20 21 22 22 22 20 19 19 19 20 19 18 18 16 12 7 4 7
9 9 10 11 11 12 14 15 15 14 13 13 13 13 13 13 13 13 14 14 14 13 13 13 13 12 12 11 11 11 10 10 10 10 10 9 9 9 10 11 10 11 12 12 12 13 13 12 13 15 16 19 21 21 18 12 7 6 6 6 6 8 10 16 20 20 21 21 20 20 22 22 21 20 20 20 20 20 19 18 17 15 12 8 7
9 9 10 10 11 12 14 15 14 13 12 11 12 12 12 13 13 13 13 13 12 12 12 12 12 12 11 11 12 11 10 9 9 9 9 9 8 9 9 9 10 11 11 11 12 13 13 12 13 15 16 19 24 26 22 16 11 7 6 4 6 6 5 13 20 21 22 20 19 21 22 23 22 21 20 20 20 20 19 19 18 17 15 12 10
10 10 10 10 10 11 13 14 14 12 12 11 11 12 12 11 12 12 12 12 11 11 11 11 11 11 11 11 11 10 10 9 8 7 8 8 8 8 9 8 8 9 9 10 11 13 13 13 13 14 15 18 23 27 27 22 17 12 5 4 9 8 7 15 20 20 21 20 19 22 24 24 24 22 21 20 19 19 19 19 18 17 16 14 13
12 11 11 11 10 11 12 13 12 11 11 10 10 10 10 10 11 11 10 11 11 11 11 11 10 10 10 10 10 10 9 9 8 8 8 8 8 8 8 8 7 7 8 10 12 13 15 15 15 16 15 16 18 22 26 24 18 12 6 6 10 11 13 20 24 20 18 20 19 21 23 23 24 24 23 22 21 21 21 21 20 19 16 14 14
12 12 12 11 10 10 11 11 10 9 9 9 8 9 9 9 10 11 11 12 12 11 11 11 10 10 10 10 10 10 10 10 9 10 10 9 8 8 8 9 8 7 9 11 12 14 15 16 16 17 17 17 17 18 22 22 18 10 5 4 4 7 11 19 26 22 16 20 19 18 22 22 22 25 25 24 23 22 22 22 23 22 20 16 13
11 11 12 11 11 10 10 10 9 8 7 7 7 8 8 9 9 11 12 12 12 10 10 9 9 9 9 9 9 9 10 10 10 11 11 10 9 9 10 10 10 10 10 11 12 14 15 16 16 17 18 19 19 19 19 19 19 14 6 1 0 2 3 8 17 17 15 21 20 17 20 21 22 24 25 26 25 24 23 22 23 23 22 20 15
10 10 11 11 11 10 9 9 7 7 7 8 8 8 8 8 10 12 12 12 11 9 9 8 7 8 8 8 8 8 9 10 10 11 12 11 9 9 10 10 11 10 10 11 12 13 15 15 16 16 17 17 18 18 19 18 17 16 11 4 1 2 2 5 10 9 14 22 20 17 19 20 22 23 25 27 25 25 25 24 23 23 22 21 19
9 9 10 10 10 9 9 8 7 7 7 7 8 7 7 7 8 9 9 9 9 8 8 7 7 7 8 9 8 7 8 9 10 11 11 11 9 8 9 9 10 10 11 11 12 13 13 14 15 16 16 16 17 18 19 19 16 16 16 9 4 4 4 7 6 5 13 18 15 17 21 21 20 21 25 26 24 25 26 25 24 24 24 22 19
9 9 9 8 8 7 7 7 7 7 7 6 6 5 6 6 6 7 7 8 8 7 6 6 6 6 7 8 8 7 8 9 9 9 10 10 9 8 8 9 10 11 12 13 14 14 14 15 15 16 16 16 18 18 19 20 18 17 19 15 12 12 10 9 5 4 9 12 13 18 19 17 18 23 25 23 22 24 26 26 25 26 26 23 20
10 9 9 8 7 6 5 6 6 6 6 5 4 5 5 5 6 7 7 7 7 7 5 5 5 5 6 7 8 8 8 8 8 8 8 8 8 8 9 10 11 13 14 15 16 16 17 17 17 18 18 18 19 19 19 20 19 18 20 18 16 16 15 12 9 6 4 6 13 18 17 17 21 23 22 21 23 23 25 28 28 28 26 24 22
11 10 9 8 7 6 5 5 5 4 4 3 2 3 5 5 4 5 6 6 6 4 5 6 6 6 6 7 7 7 7 7 7 7 7 8 9 10 12 13 15 16 17 18 18 19 19 19 20 20 20 20 19 19 18 18 18 17 18 17 16 16 15 13 12 12 6 5 8 10 16 22 23 21 18 18 22 23 25 28 29 27 25 23 22
13 11 10 9 9 7 6 5 5 4 4 3 2 1 3 5 5 4 5 4 4 4 4 6 8 8 9 8 8 7 7 6 6 7 8 9 11 13 15 16 18 18 19 20 20 19 19 19 20 20 20 20 18 17 16 15 16 16 17 18 18 17 13 8 11 14 9 5 6 7 12 16 17 22 25 21 21 26 28 27 26 26 25 23 21
14 12 12 11 10 9 8 6 6 5 5 4 3 2 1 3 4 5 5 4 4 4 4 6 8 9 9 8 8 7 7 7 7 9 10 12 14 15 17 17 18 18 19 20 20 18 17 17 17 17 16 16 16 15 15 15 15 16 19 20 19 16 12 8 12 15 10 6 7 7 10 14 13 20 29 30 27 27 25 24 24 24 23 21 20
Wind_Direction
113 111 107 103 104 101 99 99 97 94 92 90 92 96 99 99 98 95 94 95 97 96 94 91 89 88 86 84 83 82 83 81 76 73 73 73 76 77 71 74 78 75 70 65 59 45 31 29 38 55 68 77 85 91 92 94 86 88 112 111 101 88 78 74 76 77 86 93 83 77 78 72 91 119 205 207 203 209 200 208 29 129 123 117 132
119 115 105 100 105 103 103 102 100 95 92 92 89 90 90 90 90 90 90 91 93 94 93 92 91 90 88 87 85 84 85 80 73 66 63 61 62 65 64 64 66 67 64 61 57 52 52 56 58 65 69 74 83 84 80 79 76 84 99 111 118 108 87 77 81 81 82 90 92 96 109 126 177 242 262 216 199 205 195 183 57 132 129 126 148
124 116 103 101 103 101 104 102 100 97 94 92 90 90 88 86 84 84 86 86 87 88 88 87 86 84 83 84 83 80 80 78 74 65 59 57 50 51 55 58 57 57 63 67 63 64 69 70 64 67 74 73 74 73 70 71 73 78 84 93 101 103 105 100 96 93 85 83 93 95 113 154 255 214 163 207 190 191 193 187 132 146 143 146 163
119 111 106 104 100 100 102 102 101 98 96 93 91 87 85 84 83 82 81 81 81 84 86 85 83 81 81 81 77 71 71 70 67 57 48 46 45 45 45 51 55 55 61 62 60 64 70 75 73 73 81 79 74 68 64 67 71 75 79 82 82 85 90 92 87 87 80 67 55 3 22 8 317 139 138 201 190 191 192 187 170 158 158 161 170
111 107 108 106 101 100 99 100 99 98 97 92 88 83 82 82 81 81 79 78 76 76 78 80 80 81 81 77 73 68 66 63 63 61 50 42 39 37 29 34 43 50 55 52 54 62 61 64 74 79 89 91 85 77 71 69 71 73 72 72 72 76 75 72 63 52 53 22 323 328 347 7 78 145 143 186 175 185 184 182 176 164 168 168 175
108 108 108 107 106 101 100 101 100 100 97 90 86 82 81 80 79 80 79 78 75 72 70 70 70 72 74 73 74 68 62 56 53 46 45 39 26 17 2 5 14 28 39 47 51 52 53 53 66 78 86 88 84 83 81 76 74 72 67 67 66 66 67 60 40 25 26 334 311 323 320 0 108 152 157 180 162 175 178 181 176 169 175 174 181
110 112 109 108 102 102 104 99 99 95 92 89 85 84 83 80 78 77 80 81 78 76 71 66 63 61 61 63 62 58 57 57 56 38 26 19 17 5 349 352 357 4 15 38 44 34 49 59 62 76 81 78 72 71 75 80 78 74 65 62 57 52 56 44 18 5 344 307 289 301 296 320 132 168 168 182 179 179 177 179 178 177 186 186 194
115 115 116 108 93 95 96 85 85 83 84 83 78 78 77 76 74 70 69 71 70 70 68 64 60 55 54 53 49 47 46 45 48 41 24 9 5 352 350 355 356 356 6 20 23 24 45 47 37 52 71 75 67 55 48 52 55 61 41 34 47 43 47 38 6 338 313 301 284 287 283 259 205 198 186 187 190 189 185 185 187 190 197 198 206
119 115 114 104 88 82 84 79 75 72 72 70 69 68 68 69 68 66 62 59 58 57 56 56 54 52 52 50 46 43 40 37 35 33 30 20 10 352 349 355 359 356 10 17 14 27 42 38 30 31 38 41 40 11 5 354 357 20 21 28 42 43 48 40 343 317 303 295 276 268 264 246 213 213 210 203 197 200 198 199 201 197 203 206 210
113 108 103 96 91 82 81 78 70 69 67 65 66 65 65 64 63 62 60 56 55 53 51 50 49 48 49 49 48 44 41 40 37 34 33 30 23 17 16 17 21 11 23 31 25 31 34 34 34 24 19 13 3 349 323 300 322 352 26 38 43 49 55 58 299 297 305 305 270 248 239 235 229 219 219 218 207 206 203 204 210 203 205 207 211
104 102 99 92 85 80 79 75 71 71 69 67 67 67 64 59 58 56 57 57 55 54 53 51 50 50 50 51 49 46 44 44 45 42 39 37 35 35 36 40 47 38 37 46 43 36 25 25 21 0 350 348 353 356 337 324 352 17 35 36 41 54 51 53 277 308 335 1 279 233 221 223 233 222 221 225 217 214 207 208 214 209 210 209 211
100 97 97 92 78 80 81 76 72 70 69 68 65 64 61 57 55 55 57 56 54 54 54 54 53 53 52 52 51 50 47 47 49 48 44 46 48 45 44 44 49 47 42 45 44 38 25 18 11 358 352 344 347 355 7 4 31 46 34 30 40 53 37 22 19 346 3 42 78 181 200 207 227 231 227 226 222 219 212 212 215 213 215 214 214
104 100 98 93 80 77 74 73 70 67 68 66 65 63 61 60 58 57 57 54 54 53 53 54 52 53 54 53 51 52 53 52 52 48 45 47 50 51 51 46 43 43 38 37 35 31 25 18 17 13 12 20 7 353 3 3 11 21 18 25 33 43 29 8 2 355 1 21 62 136 183 202 227 237 235 229 225 221 217 219 219 220 221 218 218
106 101 99 95 87 82 76 75 73 72 70 69 70 70 69 67 65 63 61 57 55 53 53 53 53 53 57 58 55 53 52 53 53 48 45 47 50 52 53 49 42 39 34 33 31 26 22 19 19 18 16 17 1 338 340 347 349 354 2 14 17 23 17 355 346 347 5 16 26 111 219 235 238 241 242 236 230 226 225 226 222 224 224 221 221
106 101 101 98 93 90 89 84 78 78 79 81 81 79 78 74 73 72 75 77 71 65 58 54 53 52 53 56 59 59 53 51 52 50 49 50 54 55 56 53 44 40 35 31 30 25 20 16 9 5 10 10 354 324 320 330 333 340 354 5 6 7 359 341 334 332 346 6 24 15 252 251 250 249 246 240 235 231 231 233 228 228 225 222 221
110 109 108 100 91 91 95 88 81 82 84 89 87 84 78 74 76 80 84 84 78 69 56 50 52 55 54 52 53 56 56 57 56 55 55 54 56 58 59 55 47 44 40 35 30 26 24 21 13 355 338 351 356 320 307 320 328 335 345 353 358 359 350 333 323 315 308 299 308 321 288 263 256 253 247 243 242 236 235 236 233 232 228 223 222
101 106 107 99 91 89 90 86 87 87 84 86 85 81 72 69 74 79 77 73 75 70 56 47 53 58 55 52 47 44 52 57 59 62 63 60 57 56 59 57 53 50 45 37 30 24 24 23 18 13 352 336 16 14 344 333 336 340 341 345 349 348 335 319 310 304 295 293 301 304 299 287 268 255 250 247 247 242 238 235 232 232 231 227 224
88 95 97 95 93 91 88 87 90 88 83 82 82 79 70 65 70 72 70 69 71 71 63 51 55 57 53 54 50 47 54 58 64 67 65 62 58 57 59 58 54 50 44 35 30 26 27 24 19 25 39 55 70 79 76 42 2 348 345 342 343 340 324 309 301 298 294 292 297 296 293 292 281 263 252 249 250 246 239 234 231 229 229 231 230
82 84 88 92 95 94 90 90 92 91 85 81 79 76 70 65 68 69 71 74 71 70 69 61 59 56 50 53 52 53 57 57 63 63 61 60 58 61 60 57 53 48 45 39 34 30 29 29 26 28 42 56 67 75 74 57 30 358 347 337 332 329 323 311 294 287 288 289 287 284 278 275 278 268 251 246 249 246 241 236 233 231 230 235 236
84 89 91 90 91 92 91 89 89 90 88 85 82 77 77 76 73 69 71 76 73 70 69 66 64 61 57 56 57 61 61 61 63 61 61 61 60 66 65 59 53 47 43 37 31 28 24 27 29 28 36 49 56 59 56 37 19 354 338 327 323 321 320 313 293 282 286 290 291 290 280 269 271 270 250 239 241 242 239 237 236 230 228 238 238
86 94 95 91 90 88 86 86 90 95 95 92 91 89 91 92 87 80 77 78 73 69 65 64 66 66 63 60 62 63 63 69 72 70 68 67 65 68 68 59 50 45 39 33 29 27 25 26 29 31 36 42 44 43 39 24 9 350 338 331 327 325 323 315 303 295 296 299 302 304 300 284 275 274 257 238 238 241 238 236 238 229 222 237 241
85 90 93 97 91 85 87 97 99 94 93 95 96 97 100 99 93 89 88 86 77 71 64 63 66 67 65 64 65 63 66 73 75 74 69 68 67 65 63 55 49 45 39 35 33 30 28 28 28 28 28 29 29 27 22 13 4 351 343 339 334 332 330 325 317 309 309 307 305 309 310 301 285 279 268 247 240 242 241 237 239 234 221 233 249
81 84 88 91 87 91 101 109 105 93 89 96 101 101 101 96 91 88 86 85 82 77 71 68 68 68 69 67 67 66 72 79 78 73 68 66 64 61 60 55 51 45 40 37 37 36 33 32 31 26 20 17 13 9 6 1 356 348 340 336 336 334 329 328 326 318 317 313 309 307 305 305 295 289 281 260 247 246 247 244 243 239 232 239 250
75 78 85 88 89 102 109 105 108 106 97 97 102 101 98 94 89 86 84 83 81 80 78 77 76 75 76 74 74 74 77 84 85 78 73 68 64 62 60 55 49 43 40 38 40 42 39 36 33 27 20 11 5 3 4 1 354 343 338 336 335 334 327 324 325 325 328 325 322 317 307 303 301 298 293 274 257 252 251 251 252 251 252 253 252
76 82 87 89 92 103 103 100 106 109 105 104 103 99 95 93 90 89 87 85 83 82 82 82 85 86 86 87 86 85 84 87 89 84 78 73 70 66 60 52 42 39 39 36 39 38 33 29 26 25 20 12 4 3 5 10 9 0 352 348 340 335 330 329 330 332 335 333 332 329 318 312 309 305 300 288 272 265 261 259 263 265 264 262 261
79 84 87 89 91 97 97 101 108 108 108 108 103 98 96 96 95 93 90 87 84 83 83 84 88 92 93 96 95 93 92 92 90 84 78 74 73 70 63 55 44 43 38 31 29 24 19 16 16 22 22 20 19 20 21 21 20 14 5 360 350 341 336 336 338 339 340 337 335 333 326 321 320 317 310 300 288 281 278 273 276 271 260 262 266
79 82 87 90 92 98 98 104 113 109 108 107 103 102 102 100 97 93 89 85 83 80 78 80 86 92 94 96 96 96 96 95 91 84 80 77 75 71 65 56 49 45 38 32 27 21 17 14 17 23 27 34 43 44 34 25 18 12 4 359 352 343 338 336 337 339 341 342 342 340 335 328 324 322 318 313 303 299 294 285 289 280 261 259 259
84 85 88 89 92 97 96 103 113 110 110 110 107 107 105 102 98 92 87 83 80 76 75 79 85 89 88 88 92 94 94 92 90 86 83 79 73 67 60 53 48 44 38 33 30 28 28 29 32 35 40 46 54 52 34 19 12 6 0 357 353 345 336 331 329 329 334 340 340 337 335 333 331 325 317 313 310 309 307 295 295 291 271 260 256
84 83 85 87 87 87 89 97 106 107 110 111 109 107 104 100 96 91 87 83 78 75 73 75 81 84 82 81 85 88 87 86 86 85 82 75 67 59 53 47 42 39 33 29 29 30 34 38 43 44 44 44 46 41 28 16 8 6 4 1 359 356 345 332 325 323 325 328 330 326 325 330 335 334 324 314 310 310 312 307 309 304 284 267 259
85 87 92 95 94 93 95 97 101 106 110 111 108 104 101 97 93 90 86 81 78 74 72 72 76 79 78 78 80 81 80 80 79 76 72 66 59 50 46 41 37 34 28 27 27 29 32 34 36 37 34 33 31 27 19 11 5 6 8 8 8 8 5 354 341 333 325 322 324 320 316 322 330 333 330 323 317 315 315 318 324 305 283 270 263
91 93 94 99 103 103 101 99 102 109 112 111 106 100 98 95 92 88 84 82 79 76 74 73 74 75 75 75 74 74 73 72 70 65 61 57 50 45 42 38 37 33 26 25 26 28 30 29 28 26 23 21 18 16 12 5 2 5 9 14 18 18 21 22 17 3 346 339 338 333 324 322 327 328 327 326 325 328 332 342 336 298 283 279 274
93 93 95 100 104 104 101 100 106 112 114 112 107 101 98 94 91 86 82 81 80 79 77 74 73 71 70 69 68 67 65 63 61 58 55 50 46 41 39 37 36 31 24 21 22 26 25 23 23 18 13 7 1 2 3 1 0 4 10 19 29 34 38 42 41 37 32 29 28 22 7 351 347 346 343 341 341 347 358 20 358 308 306 303 290
93 95 101 103 102 106 105 106 114 117 116 114 111 107 101 94 88 83 79 78 80 82 80 77 72 68 64 62 62 61 59 56 53 53 53 51 47 42 39 39 37 32 26 21 21 22 18 15 13 8 3 356 351 349 349 350 355 4 15 29 46 58 61 62 60 57 56 54 51 48 41 33 26 22 15 11 11 13 23 38 15 323 332 339 318
99 103 104 100 100 110 113 113 119 122 119 117 114 108 101 95 90 84 79 77 81 85 83 79 72 65 59 57 58 57 57 53 48 48 51 53 49 46 45 45 42 35 30 28 27 27 23 19 13 9 5 359 355 350 343 341 347 2 22 41 59 69 70 68 65 61 58 56 55 52 50 47 42 40 38 35 36 39 44 47 35 353 343 353 344
104 103 102 100 103 112 120 125 126 125 123 118 114 107 100 95 89 84 80 79 82 84 81 75 69 64 59 57 57 57 57 52 47 45 50 56 53 50 51 51 47 37 32 32 34 36 33 29 24 18 13 7 0 352 346 341 342 3 40 57 66 71 70 67 62 58 54 52 51 50 49 48 46 45 45 47 49 50 54 57 57 44 352 351 353
104 104 105 107 110 117 128 135 132 130 125 120 114 108 101 93 87 82 80 79 79 79 76 73 70 67 61 60 60 60 61 57 54 52 58 65 61 55 55 57 53 44 39 37 39 43 42 40 36 28 22 16 8 360 355 347 343 13 74 75 74 71 65 61 56 52 49 46 44 43 42 43 43 42 43 45 48 50 51 54 58 55 2 340 351
103 105 107 110 115 123 134 138 135 130 125 121 116 108 101 92 86 82 81 80 79 79 79 77 76 72 67 66 65 64 64 62 60 61 71 77 70 63 61 64 60 52 50 47 46 47 47 47 42 34 27 21 17 12 8 3 3 67 106 84 75 70 60 53 46 41 40 38 36 34 33 32 32 32 34 34 36 38 40 43 48 49 30 325 333
101 102 103 106 113 121 134 137 133 129 123 119 113 107 101 92 90 90 89 88 85 84 83 82 81 78 75 71 68 67 66 66 63 65 79 83 77 69 65 66 63 57 56 54 51 47 47 50 45 36 28 23 21 16 15 23 42 95 119 95 74 65 56 45 36 31 28 26 24 24 23 22 20 19 20 21 21 22 24 26 31 36 33 349 321
99 102 103 105 110 117 129 134 130 125 119 117 115 111 106 101 102 105 103 99 94 90 85 84 81 78 77 73 68 67 68 71 67 67 76 81 77 70 64 62 60 56 53 53 48 42 43 46 43 37 31 28 25 21 21 32 61 100 126 109 56 40 43 31 27 27 21 17 16 14 13 12 10 8 8 8 7 7 10 11 13 17 17 7 337
103 105 106 106 111 120 129 130 126 122 119 122 125 123 119 114 116 117 113 108 102 97 90 86 80 76 77 74 69 65 65 66 63 63 67 72 73 65 61 59 57 55 50 47 41 35 35 37 38 37 35 34 32 30 28 32 55 83 120 108 23 5 10 11 20 27 23 19 17 14 14 13 10 6 4 3 1 359 360 359 359 1 1 360 350
112 111 110 110 113 122 129 127 123 122 122 125 131 133 129 123 122 121 118 114 108 101 95 90 82 78 78 73 68 65 59 54 53 53 54 64 70 62 61 62 59 52 44 41 36 32 35 37 38 38 37 35 34 34 32 33 42 48 64 54 26 30 23 9 15 24 23 20 19 16 16 17 14 12 9 7 6 3 2 359 355 351 349 349 348
118 112 107 110 113 115 121 122 119 115 110 112 122 131 127 118 116 116 117 115 107 101 99 94 88 84 79 72 67 63 54 49 52 48 45 59 70 66 68 69 64 52 41 39 37 36 37 37 35 34 35 35 34 33 33 35 34 31 34 19 17 23 17 10 7 11 17 13 10 11 11 11 10 10 10 9 11 10 10 8 3 357 349 342 341
121 112 107 108 110 110 112 114 111 106 102 100 104 113 111 105 108 113 116 113 108 107 104 98 91 85 78 72 67 60 51 51 56 49 49 66 76 72 70 68 63 55 46 41 39 37 34 32 30 28 28 31 34 33 33 36 33 29 34 25 15 1 4 7 357 354 2 358 357 1 1 1 1 1 1 1 3 4 5 5 4 3 358 347 338
130 121 114 109 108 110 110 107 105 104 107 104 97 102 106 104 110 117 115 111 111 111 103 95 90 84 78 74 71 63 53 55 60 55 58 71 77 71 64 62 62 60 51 41 35 31 28 27 25 23 22 22 25 28 29 33 34 34 30 1 143 343 359 354 338 335 344 345 345 348 349 351 351 351 352 351 352 352 353 354 355 357 357 353 343
143 133 123 115 110 109 107 104 104 105 108 107 100 102 109 112 118 121 117 111 109 104 95 91 91 88 79 74 73 66 55 57 64 61 62 69 73 70 62 57 57 54 44 34 26 22 20 19 18 17 16 14 11 16 21 23 28 33 33 34 49 7 328 315 318 315 324 330 333 336 338 340 341 342 342 342 343 342 342 342 343 345 347 350 347
159 149 137 127 119 116 114 111 109 108 106 103 100 101 109 112 113 119 119 111 106 100 94 90 89 88 79 69 64 59 54 60 69 66 62 62 63 61 53 46 42 38 33 26 20 16 13 11 10 7 7 6 1 1 7 9 11 16 19 21 11 340 302 311 324 309 314 319 321 325 327 329 333 334 333 333 335 334 334 335 333 333 334 337 341
170 164 156 146 136 132 132 130 124 118 112 99 93 94 100 102 98 108 118 114 109 106 94 82 80 83 78 63 54 54 57 66 74 67 58 54 52 49 42 34 27 22 18 14 11 8 5 2 0 358 357 357 355 353 354 357 358 357 358 357 350 342 330 322 316 302 316 317 315 318 322 327 328 325 324 327 329 327 328 329 327 325 325 324 326
176 176 175 170 160 151 154 156 145 136 128 110 94 80 79 85 91 103 116 115 109 101 79 59 62 72 71 58 54 60 63 68 69 60 50 43 37 31 23 16 10 5 1 359 357 355 354 353 351 350 349 347 348 349 348 352 355 352 351 351 348 346 344 338 328 319 312 309 317 319 320 324 321 319 321 322 323 324 323 324 324 321 320 319 316
184 188 188 187 182 173 176 183 175 167 158 140 112 77 68 71 82 92 106 113 105 82 52 41 45 51 51 46 49 61 64 64 59 46 36 25 17 10 6 3 360 357 353 349 346 344 342 342 341 341 340 339 341 345 350 355 2 4 4 5 5 2 360 359 355 347 328 294 313 318 319 324 323 318 319 321 321 320 318 317 318 318 317 315 311
192 199 200 201 198 194 195 197 195 198 196 190 193 114 72 67 69 69 78 95 85 56 46 45 44 43 43 41 44 55 60 58 48 33 21 12 7 2 358 357 353 349 345 341 339 337 334 331 330 332 333 338 345 353 2 9 17 24 25 25 22 15 9 4 355 348 334 295 295 300 309 320 321 315 316 319 317 316 316 315 314 314 313 312 309
198 207 210 211 211 207 206 209 209 211 215 214 213 202 101 69 65 62 61 69 67 57 54 49 43 40 39 42 46 51 48 38 26 18 13 6 3 359 354 349 343 339 336 336 334 332 333 331 331 339 349 0 9 17 24 27 29 30 29 29 27 22 17 0 345 342 337 315 306 303 304 308 304 303 311 316 316 316 318 316 313 314 314 313 310
Height
804 804 805 804 805 804 804 803 803 802 802 803 803 802 802 802 802 802 802 802 802 802 802 803 802 802 802 802 802 803 803 803 803 803 803 803 803 802 802 802 802 802 801 801 801 801 801 800 800 800 800 800 801 801 801 801 801 801 801 801 801 802 802 802 802 803 803 802 803 803 804 804 805 805 805 806 806 805 805 804 803 803 802 802 802
805 805 805 805 806 805 804 804 804 803 803 804 804 804 803 802 802 803 803 803 803 803 803 803 803 803 803 803 803 803 803 803 803 803 803 803 803 803 803 803 802 803 802 802 802 801 801 801 801 801 801 801 801 801 801 801 801 801 801 801 802 802 802 802 802 803 802 802 803 803 804 804 805 805 805 805 805 805 805 804 804 803 803 803 803
805 806 806 806 806 806 805 805 805 804 805 805 805 805 804 803 803 804 804 804 804 804 804 804 804 804 804 804 804 804 804 804 804 804 804 804 803 804 803 803 803 803 803 803 802 802 802 802 802 801 802 802 802 802 802 802 802 802 801 802 802 802 802 802 802 802 803 803 803 803 804 804 804 804 804 804 805 805 804 804 804 804 803 803 804
805 806 806 806 807 807 806 806 806 805 806 806 806 805 804 804 804 805 804 805 805 805 805 805 805 805 805 805 805 805 805 805 805 805 805 804 804 804 804 804 804 804 804 803 803 802 802 803 803 802 803 803 803 803 803 803 803 802 802 802 802 802 802 802 803 803 803 803 803 803 804 804 804 803 804 804 804 804 804 804 804 804 804 804 804
806 806 807 807 807 808 807 807 807 807 807 807 807 806 806 805 805 805 805 806 806 806 806 806 806 806 806 806 806 806 806 806 806 806 806 805 805 805 805 805 805 805 804 804 804 803 803 803 803 803 804 804 804 804 804 804 803 803 803 803 803 802 802 802 803 803 803 803 803 803 804 803 803 803 804 804 804 804 804 804 804 804 804 804 804
807 807 808 808 808 808 809 808 808 808 808 808 807 807 807 806 806 806 806 807 807 807 806 807 807 807 807 807 807 807 807 807 807 807 807 807 806 806 806 806 805 805 805 805 805 805 804 804 804 804 804 805 805 805 804 804 804 804 804 804 803 803 802 803 803 803 803 803 803 803 803 803 804 803 804 804 804 804 804 804 804 804 804 804 804
808 808 809 809 809 809 809 809 809 809 808 808 808 807 807 807 807 807 807 807 807 807 807 808 807 808 808 808 808 808 808 808 808 808 808 807 807 807 807 806 806 806 805 805 805 805 805 805 805 805 805 805 805 805 805 805 804 804 804 804 804 803 803 803 803 803 803 803 803 803 803 803 804 804 804 804 804 804 804 804 804 805 805 805 805
809 810 810 810 810 810 810 810 810 809 809 809 809 808 808 808 808 808 807 808 808 808 808 808 808 809 809 809 809 809 809 809 809 808 809 808 808 808 807 807 806 806 806 806 805 805 805 805 805 806 806 806 806 806 806 805 805 805 804 804 804 803 803 804 804 803 803 803 803 803 803 803 804 804 804 804 804 804 804 805 805 805 805 805 805
810 810 811 811 811 810 810 810 810 810 810 810 809 809 809 809 809 808 808 808 809 809 809 809 810 809 809 809 809 810 810 809 809 809 809 809 808 808 808 807 807 807 806 807 806 806 806 805 806 806 806 806 806 806 806 806 805 805 804 804 804 804 804 804 804 803 803 803 802 802 803 803 803 803 803 804 804 804 805 805 805 805 805 805 805
810 811 811 811 811 811 811 811 810 810 810 810 810 810 810 810 809 809 809 809 810 810 810 810 810 810 810 810 810 810 810 810 810 810 810 809 809 809 808 808 807 807 807 807 807 806 806 806 806 806 806 806 806 807 806 806 805 805 804 804 804 804 804 804 804 803 803 802 802 802 802 803 803 803 803 803 804 804 805 805 805 805 805 805 806
811 812 812 812 812 812 811 811 811 811 811 811 811 811 811 810 810 810 810 811 811 811 811 811 811 811 811 811 811 810 810 810 810 810 810 810 809 809 809 808 808 808 808 808 807 807 807 807 807 807 806 806 806 807 806 806 805 805 804 804 804 804 804 804 804 803 803 802 802 802 802 803 803 803 803 804 804 804 805 805 805 805 806 806 806
812 813 813 814 813 813 812 812 812 812 812 812 812 812 812 811 812 812 812 812 812 812 812 813 812 812 812 812 811 811 811 811 811 811 811 810 810 809 809 809 808 808 808 808 808 808 807 807 807 806 806 806 807 806 806 806 805 805 805 805 805 804 804 804 804 803 803 802 802 802 802 803 803 803 803 804 804 804 805 805 805 805 806 806 806
814 814 814 814 813 814 813 813 813 812 813 812 813 813 813 813 813 813 813 813 813 814 814 814 813 813 812 812 812 812 812 811 811 811 811 811 810 810 809 809 809 809 808 808 808 808 808 807 807 807 806 807 807 807 806 806 805 805 805 805 805 804 804 804 804 803 803 803 803 803 803 803 803 803 803 804 804 804 804 805 805 805 806 806 806
815 815 815 814 814 814 814 814 813 813 813 813 814 813 814 813 813 813 813 813 813 814 814 814 813 813 813 813 813 813 812 812 812 811 811 811 810 810 810 810 809 809 809 809 808 808 808 807 807 807 807 807 807 807 806 806 805 805 805 805 805 805 804 804 804 804 804 803 803 803 803 803 803 803 803 804 804 804 804 804 805 805 805 806 806
816 815 815 815 815 815 815 815 814 814 814 814 814 814 814 814 814 813 813 813 813 814 814 814 814 815 814 814 813 813 813 813 812 811 811 811 810 810 810 810 809 809 809 809 808 808 808 807 807 807 807 807 807 807 806 806 805 805 805 805 805 805 804 804 804 804 804 803 803 803 802 803 803 803 803 803 804 804 804 804 804 805 805 806 806
816 816 816 816 816 816 815 815 815 815 814 814 814 814 815 815 815 814 814 814 814 814 814 815 816 816 815 815 814 814 814 813 813 812 812 811 811 810 810 810 809 809 809 809 809 808 808 807 807 807 807 807 807 806 806 805 804 804 804 804 804 804 804 804 804 804 803 803 803 803 802 802 802 803 803 803 803 803 803 804 804 804 805 805 805
817 817 817 817 816 816 816 816 815 815 815 815 815 816 816 816 816 815 815 815 815 815 815 816 817 817 816 816 815 815 815 814 814 813 812 811 811 811 810 810 809 809 809 809 809 808 808 807 807 807 806 807 807 806 805 805 804 804 803 803 803 803 804 803 803 803 803 803 803 803 802 802 802 802 802 803 803 803 803 803 804 804 804 804 805
817 818 817 817 817 817 817 816 816 816 816 816 816 817 817 817 817 816 816 816 816 816 817 818 817 817 817 817 817 816 816 815 814 813 813 812 811 811 810 810 809 809 809 809 809 808 808 808 807 807 806 806 806 806 805 805 804 803 803 803 803 803 803 803 803 803 803 803 802 802 802 802 801 801 801 802 802 802 802 802 803 803 804 804 804
818 818 818 818 817 817 817 817 817 817 817 817 817 818 818 818 817 817 817 817 817 818 819 819 819 818 818 818 817 817 816 815 814 814 813 812 812 811 811 810 810 810 810 809 809 809 808 808 807 807 806 806 806 806 805 805 804 804 804 803 803 803 803 803 803 803 803 802 802 802 801 801 800 800 800 801 801 801 801 802 802 802 803 803 803
819 818 818 818 818 818 818 819 819 819 819 818 818 819 819 819 818 818 818 818 819 819 820 820 820 820 819 819 818 817 816 815 815 814 813 813 812 812 811 811 811 811 810 810 810 809 808 808 807 807 806 806 806 806 805 805 805 805 804 804 804 804 804 803 803 803 802 802 802 801 801 800 800 799 799 799 799 799 800 801 802 801 802 802 802
819 819 819 819 819 820 820 820 821 820 820 820 820 820 820 820 820 820 820 820 820 820 821 821 821 821 820 819 819 817 816 816 815 814 814 813 813 812 812 812 812 811 811 810 810 809 809 808 807 807 806 806 806 806 806 805 805 805 805 804 804 804 803 803 803 803 802 802 801 800 800 800 799 799 798 798 798 798 798 799 799 799 800 801 802
820 820 820 820 821 822 821 821 821 822 822 821 821 821 822 822 822 822 822 822 821 822 821 821 821 821 820 819 819 818 817 816 815 815 814 814 813 813 813 813 812 812 812 811 810 810 809 808 808 807 807 806 806 806 806 805 805 805 805 804 804 803 803 803 803 802 802 801 800 800 799 799 798 798 797 797 797 797 797 797 797 797 799 801 802
821 821 821 822 822 822 821 821 822 824 824 823 822 822 823 823 823 823 823 823 822 822 822 822 821 821 820 819 819 818 817 817 816 816 815 815 814 814 814 813 813 813 812 811 811 810 810 809 808 808 808 807 807 806 806 806 805 805 805 804 803 803 803 802 802 802 801 800 800 799 798 798 797 797 797 796 796 796 796 795 795 796 799 801 801
823 822 822 823 823 822 822 823 823 824 824 824 824 824 824 824 824 824 824 823 823 823 822 822 821 821 820 820 819 818 818 817 817 816 816 816 815 815 815 814 814 813 813 812 811 811 810 810 809 809 808 808 807 807 807 806 806 805 805 804 803 803 803 802 802 801 800 800 799 798 798 797 797 796 796 796 795 795 794 794 795 797 799 799 798
824 823 823 824 824 823 823 824 824 824 825 826 825 825 824 824 824 824 824 824 823 823 822 822 822 821 821 820 820 819 818 818 818 817 817 817 816 816 816 815 815 814 813 813 812 812 811 810 810 809 809 808 808 807 807 806 806 805 805 804 804 803 802 802 801 801 800 799 798 798 797 797 796 796 795 795 794 794 794 794 796 798 798 797 798
825 824 824 824 825 825 825 826 826 826 827 827 826 825 825 825 824 825 824 824 824 824 823 823 823 822 822 821 820 820 819 819 819 818 818 818 817 817 816 816 815 815 814 814 813 812 812 811 810 810 809 809 808 808 807 807 806 805 805 804 803 803 802 801 801 800 799 798 797 797 796 796 796 795 795 794 794 793 793 794 796 797 796 796 798
825 825 825 825 826 826 827 827 827 827 827 828 826 825 825 825 825 825 825 825 825 825 825 824 824 823 823 822 821 821 820 820 820 819 819 819 818 818 817 817 816 816 815 814 814 813 812 811 811 811 810 809 809 808 808 807 806 805 805 804 803 802 802 801 800 799 798 798 797 796 796 795 795 794 794 793 793 793 792 794 795 794 795 796 796
826 826 826 826 827 827 828 829 828 827 827 827 826 826 826 826 826 826 826 826 826 826 826 825 825 825 824 824 823 822 822 821 821 820 820 820 819 819 818 818 817 817 816 815 814 813 813 812 812 811 810 810 809 809 808 807 807 806 805 804 803 802 801 801 800 799 798 797 796 796 795 794 794 793 793 792 792 792 791 793 794 793 795 795 794
827 827 827 827 828 828 828 829 828 828 828 827 827 827 827 827 827 827 827 827 827 827 827 827 826 826 826 825 824 824 823 822 822 822 821 821 820 820 819 819 818 817 817 816 815 814 813 812 812 811 811 810 810 809 808 808 807 806 805 804 803 802 801 800 799 798 797 796 795 795 794 794 793 792 792 791 791 791 791 793 794 793 794 793 792
829 829 829 829 829 829 829 829 829 829 828 828 828 828 828 828 828 829 829 829 829 829 829 829 828 828 827 827 826 825 824 824 823 823 823 822 822 821 820 820 819 818 818 816 816 815 814 813 812 812 811 811 810 809 809 808 807 806 805 804 803 802 801 800 799 798 797 796 795 794 794 793 793 792 791 790 790 790 791 793 794 792 791 790 790
830 831 831 831 831 830 830 830 830 830 830 829 829 830 830 830 830 831 831 831 831 831 831 830 830 829 829 828 828 827 826 826 825 825 824 823 823 822 822 821 820 820 819 818 817 816 815 814 813 812 812 811 810 810 809 808 807 806 805 804 803 802 801 800 798 797 796 795 794 794 793 793 792 791 790 790 789 789 790 792 792 789 788 789 789
832 832 832 832 832 832 832 832 831 831 831 831 831 831 832 832 833 833 833 833 833 833 832 832 831 831 831 830 829 829 828 827 827 826 825 825 824 824 823 822 822 821 820 819 818 817 816 815 814 813 812 812 811 810 809 808 807 807 806 805 804 802 801 800 798 797 796 795 794 794 793 792 791 791 790 789 789 789 789 790 790 788 788 789 788
833 833 834 833 833 833 833 833 832 833 832 833 833 833 834 834 834 834 834 834 834 833 833 833 833 832 832 831 831 830 829 829 828 827 827 826 825 825 824 823 823 822 821 820 818 817 816 815 814 814 813 812 811 810 809 808 808 807 806 805 804 803 801 800 799 798 797 796 795 794 793 792 791 791 790 789 789 788 788 788 789 788 787 788 787
834 835 834 834 834 834 834 834 834 834 834 834 835 835 835 836 836 836 836 835 835 835 834 834 834 834 833 832 832 831 830 830 829 829 828 827 826 826 825 825 824 823 822 821 819 818 817 816 815 814 813 812 811 810 809 808 808 807 807 806 805 804 802 801 800 799 798 797 795 794 793 793 792 791 790 790 789 788 788 788 788 788 787 787 786
836 835 836 835 835 835 835 835 835 835 836 836 836 837 837 837 837 837 837 836 836 836 836 835 835 835 834 833 833 832 831 831 830 829 829 828 827 827 826 826 825 824 823 822 821 819 818 817 816 815 814 813 812 811 809 808 808 807 807 806 805 804 803 802 801 800 799 797 796 795 794 793 792 792 791 791 790 789 789 788 788 788 787 786 786
837 837 837 836 836 836 836 836 837 837 837 837 837 838 838 838 838 837 837 837 837 837 837 836 836 836 835 834 834 833 832 832 831 830 830 829 828 828 827 827 826 825 824 823 822 820 820 819 818 816 815 814 812 811 809 808 807 807 807 806 806 805 803 802 801 800 800 798 797 796 795 794 793 793 792 792 791 790 790 789 788 788 787 786 785
838 838 838 837 837 837 837 838 838 838 838 838 838 839 839 838 838 838 838 838 837 837 837 837 837 836 836 835 835 834 834 833 832 831 830 830 829 829 828 828 827 826 825 824 823 822 821 820 819 818 816 815 813 811 809 807 806 806 807 806 806 805 804 803 802 801 800 799 798 797 796 795 795 794 793 793 792 791 790 790 788 787 787 786 785
838 839 838 838 838 838 838 838 839 839 839 839 839 839 839 839 839 839 839 838 838 838 838 838 838 838 837 836 836 835 835 834 833 832 832 831 831 830 829 829 828 827 826 825 824 823 822 821 820 819 817 815 813 811 808 807 806 806 807 807 806 805 805 804 803 802 801 800 799 798 798 797 796 795 794 794 793 792 791 790 789 788 787 786 785
839 839 839 839 839 839 839 839 840 840 840 840 840 840 840 840 840 840 840 839 840 840 839 839 839 839 838 837 837 836 836 835 834 833 833 832 832 831 830 830 829 828 827 826 825 824 823 822 821 820 819 817 814 812 809 807 806 806 807 807 806 806 805 805 804 803 802 801 800 799 798 798 797 796 795 794 793 792 791 790 789 788 787 786 785
840 840 840 840 840 840 840 840 841 841 841 841 841 841 841 841 841 841 841 841 841 841 841 840 840 839 839 838 838 837 836 836 835 834 834 833 832 832 831 830 830 829 828 827 826 825 824 823 822 821 820 818 815 813 810 808 807 806 806 807 807 806 806 805 805 804 802 801 801 800 799 798 797 796 795 795 794 793 791 790 789 789 788 786 785
841 841 841 841 841 841 841 841 842 842 842 842 841 842 841 841 842 842 842 842 842 842 842 841 841 840 840 839 838 838 837 836 836 835 834 834 833 833 832 831 831 830 829 828 827 826 825 824 823 822 821 819 817 814 812 810 808 807 807 807 807 807 807 806 805 804 803 802 801 800 799 798 797 797 796 795 794 793 792 791 789 789 788 786 785
841 842 842 842 842 842 842 842 842 843 842 843 842 842 842 842 842 842 842 842 843 842 842 842 841 841 840 840 839 838 838 837 836 836 835 834 834 833 832 832 831 831 830 829 829 828 826 826 824 823 822 820 819 817 815 812 810 810 810 809 808 807 806 805 804 804 804 803 802 801 800 799 798 797 796 795 794 793 792 791 790 788 787 786 785
842 842 843 843 843 843 843 843 843 843 843 843 843 843 843 843 843 843 843 843 843 843 843 842 842 842 841 840 840 839 839 838 837 837 836 835 834 834 833 833 832 832 831 830 830 829 828 827 826 825 823 822 821 819 817 815 814 813 812 811 811 810 807 805 804 804 803 803 802 801 800 799 798 797 796 795 794 793 792 791 790 788 787 786 785
842 843 843 843 844 843 843 844 844 844 844 844 844 843 843 843 843 843 843 843 844 844 843 843 843 842 842 841 841 840 839 839 838 837 836 836 835 835 834 834 833 833 832 831 831 830 829 828 827 826 825 823 822 820 819 818 817 815 813 814 814 813 811 808 806 804 802 802 801 801 800 798 798 797 796 795 794 793 792 791 790 789 787 786 784
843 843 844 844 844 844 844 844 844 844 844 844 844 844 844 844 844 844 844 844 844 844 844 844 843 843 842 842 841 841 840 840 839 838 837 837 836 836 836 835 834 834 833 833 832 831 830 829 828 827 826 824 823 822 821 819 818 817 816 816 815 815 813 811 808 803 801 801 800 799 799 798 797 796 795 794 793 792 791 790 789 788 787 786 784
843 844 844 844 844 844 844 845 845 845 845 845 845 845 844 844 844 844 845 845 845 845 844 844 843 843 843 842 842 841 841 840 840 839 839 838 838 837 837 836 836 835 834 834 833 832 831 830 829 827 826 825 824 823 821 820 819 818 818 817 817 817 815 812 810 804 799 798 798 798 797 797 796 795 794 793 792 791 790 789 788 787 786 785 784
843 844 844 844 844 844 845 845 845 846 846 845 845 845 845 845 845 845 845 845 845 845 845 844 843 843 843 843 843 842 842 841 841 840 840 839 839 838 838 837 837 836 835 834 833 832 831 830 829 828 827 826 824 823 821 820 819 818 818 818 817 817 815 813 812 808 802 796 794 795 795 795 795 793 792 792 791 790 788 788 787 785 785 784 783
843 843 843 844 844 845 845 846 846 846 846 846 846 846 845 845 845 845 845 845 845 845 845 844 844 844 844 843 843 843 842 842 841 841 841 840 840 839 839 838 837 837 836 835 834 833 832 830 829 828 827 826 824 823 821 820 819 818 817 817 816 815 815 813 812 811 809 803 795 791 792 793 793 792 791 790 789 788 787 785 785 784 782 782 781
842 843 843 844 844 845 845 845 846 846 846 846 846 846 846 845 845 845 845 846 845 845 845 844 844 844 844 844 843 843 843 843 842 842 841 841 840 840 839 839 838 837 836 835 833 832 831 830 828 827 826 825 823 822 821 820 819 818 816 815 815 814 813 812 812 811 811 808 802 796 791 789 788 788 788 788 787 786 785 784 782 781 780 779 779
842 842 843 844 844 844 845 845 846 846 846 846 846 846 846 846 846 846 846 846 845 845 845 845 845 845 845 844 844 844 844 843 843 842 842 841 841 840 839 839 837 836 835 833 832 831 829 828 827 826 824 823 822 821 821 820 819 818 817 815 814 814 812 812 812 811 810 808 805 801 796 792 788 784 784 785 785 783 782 781 780 779 778 777 776
841 842 842 843 844 844 845 845 845 846 846 846 846 846 847 846 846 846 846 846 846 846 845 845 845 845 845 845 845 844 844 844 843 842 842 842 841 840 839 838 836 835 834 832 831 829 828 827 826 825 824 823 822 821 821 820 819 818 817 816 816 815 815 814 812 811 810 808 805 801 797 795 792 785 781 781 781 781 779 778 778 776 775 774 774